Regional Weather Roundup
Issued by NWS

Home | Current Version | Previous Version | Text Only | Print | Product List | Glossary Off
Versions: 1 2 3 4 5 6 7 8 9 10 11 12 13 14 15 16 17 18 19 20 21 22 23 24 25 26 27 28 29 30 31 32 33 34 35 36 37 38 39 40 41 42 43 44 45 46 47 48 49 50

000
ASUS43 KLMK 290502
RWRKY
KENTUCKY REGIONAL WEATHER ROUNDUP
NATIONAL WEATHER SERVICE LOUISVILLE KY
100 AM EDT SUN MAR 29 2015

NOTE "FAIR" INDICATES FEW OR NO CLOUDS BELOW 12,000 FEET
WITH NO SIGNIFICANT WEATHER AND/OR OBSTRUCTIONS TO VISIBILITY.

KYZ001>023-026-027-061>063-070>075-290600-
WESTERN AND SOUTH CENTRAL KENTUCKY

CITY           SKY/WX    TMP DP  RH WIND       PRES   REMARKS
PADUCAH        CLEAR     32  19  58 E5        30.33S WCI  27
HENDERSON      CLEAR     21  19  93 CALM      30.35S
OWENSBORO      CLEAR     30  25  82 CALM      30.36R
HOPKINSVILLE   CLEAR     32  17  52 NE3       30.34S
BOWLING GREEN  CLEAR     29  18  63 CALM      30.35S
GLASGOW        NOT AVBL
$$

KYZ024-025-028>034-038-045-046-053-290600-
NORTH CENTRAL KENTUCKY

CITY           SKY/WX    TMP DP  RH WIND       PRES   REMARKS
LOUISVILLE/SDF CLEAR     32  16  51 E3        30.35F
LOUISVILLE/LOU CLEAR     33  14  45 E5        30.36S WCI  29
FORT KNOX      CLEAR     29  15  55 E2        30.33S
$$

KYZ035>037-039>044-047>052-055>060-089>105-290600-
NORTHEAST KENTUCKY

CITY           SKY/WX    TMP DP  RH WIND       PRES   REMARKS
LEXINGTON      CLEAR     28  13  53 E5        30.35R WCI  23
COVINGTON      CLEAR     27  15  61 CALM      30.35S
FRANKFORT      CLEAR     24  16  71 CALM      30.35R
$$

KYZ054-064>069-076>088-106>120-290600-
SOUTHEAST KENTUCKY

CITY           SKY/WX    TMP DP  RH WIND       PRES   REMARKS
JACKSON        CLEAR     27  11  51 CALM      30.33R
LONDON         CLEAR     28  16  60 CALM      30.33R
SOMERSET       NOT AVBL
MIDDLESBORO    CLEAR     27  20  74 CALM      30.34R
MONTICELLO     CLEAR     24  19  81 CALM      30.37S
$$




USA.gov is the U.S. government's official web portal to all federal, state and local government web resources and services.